Flag for United Kingdom Weather past 2 weeks in Bangor, Wales, United Kingdom

Now
33 °F

Rain. Overcast.


Feels Like: 26 °F
Forecast: N/A
Wind: 9 mph from Northeast

Location: Capel Curig

Current Time: Dec 26, 2014 at 6:48:18 PM

Latest Report: Dec 26, 2014 at 6:00 PM


Visibility: 3 mi

Pressure: 29.81 "Hg

Humidity: 97%

Dew point: 33 °F

Location of BangorLocation

Historic Weather in Bangor — Graph

°F

Bangor temperature yesterday

Maximum temperature yesterday: 43 °F (at 4:00 AM)
Minimum temperature yesterday: 40 °F (at 10:00 PM)
Average temperature yesterday: 42 °F

Past Weeks' High & Low Weather Summary

 TemperatureHumidityPressure
High53 °F (Dec 17, 8:00 PM)97% (Dec 18, 8:00 AM)30.50 "Hg (Dec 18, 8:00 AM)
Low33 °F (Dec 26, 4:00 PM)66% (Dec 25, 4:00 PM)29.18 "Hg (Dec 12, 3:00 AM)
Average43 °F83%29.85 "Hg
* Reported Dec 11 5:00 PM — Dec 26 5:00 PM, Bangor, Weather by CustomWeather, © 2014

Note: Actual official high and low records may vary slightly from our data, if they occured in-between our weather recording intervals... More about our weather records

Advertising

Bangor weather history for previous 24 hours

 ConditionsComfort  
Time TempWeatherWind HumidityBarometerVisibility
5:00 PM
Dec 26
33 °FLight rain. Overcast.7 mph97%29.87 "Hg2 mi
4:00 PM33 °FSnow. Cloudy.9 mph97%29.93 "Hg1 mi
3:00 PM34 °FRain. Cloudy.10 mph94%30.00 "Hg2 mi
2:00 PM38 °FRain. Cloudy.10 mph83%30.06 "Hg7 mi
1:00 PM38 °FLight rain. Cloudy.9 mph88%30.16 "Hg8 mi
12:00 PM38 °FRain showers. Cloudy.9 mph91%30.22 "Hg6 mi
11:00 AM38 °FLight rain. Cloudy.9 mph93%30.28 "Hg10 mi
10:00 AM38 °FRain showers. Cloudy.9 mph90%30.32 "Hg12 mi
9:00 AM39 °FChilly.8 mph93%30.35 "Hg12 mi
8:00 AM39 °FChilly.10 mph90%30.36 "Hg16 mi
7:00 AM38 °FChilly.8 mph91%30.38 "Hg12 mi
6:00 AM38 °FChilly.9 mph90%30.40 "Hg14 mi
5:00 AM38 °FChilly.6 mph91%30.44 "Hg17 mi
4:00 AM38 °FChilly.7 mph91%30.45 "Hg16 mi
3:00 AM39 °FChilly.8 mph90%30.47 "Hg12 mi
2:00 AM39 °FChilly.10 mph89%30.47 "Hg8 mi
1:00 AM40 °FQuite cool.8 mph85%30.48 "Hg18 mi
12:00 AM41 °FQuite cool.12 mph82%30.49 "Hg14 mi
11:00 PM
Dec 25
41 °FQuite cool.13 mph83%30.50 "Hg19 mi
10:00 PM40 °FQuite cool.13 mph87%30.50 "Hg22 mi
8:00 PM41 °FQuite cool.7 mph86%30.50 "Hg14 mi
7:00 PM41 °FQuite cool.8 mph81%30.49 "Hg6 mi
6:00 PM41 °FQuite cool.8 mph81%30.49 "Hg17 mi
Weather by CustomWeather, © 2014

See weather overviewHow to use our weather pages